AC0ID-13 Weather Reports


Display with metric or nautical units.
time (UTC)temp
F
wind
direction
speed
MPH
gust
MPH
rain 1hr
in
rain 24hr
in
rain mn
in
humidity
%
barometer
mb
20260509022006 63 349 0.0 0.0 0.00 0.00 0.00 32 1002.2
20260509021520 63 349 0.0 0.0 0.00 0.00 0.00 32 1002.2
20260509021008 64 349 0.0 1.0 0.00 0.00 0.00 31 1002.2
20260509020509 64 349 0.0 1.0 0.00 0.00 0.00 31 1002.1
20260509020011 65 349 0.0 2.0 0.00 0.00 0.00 31 1002.1
20260509015504 65 349 0.0 2.0 0.00 0.00 0.00 30 1002.0
20260509015008 65 289 0.0 1.0 0.00 0.00 0.00 30 1001.9
20260509014515 66 297 0.0 2.0 0.00 0.00 0.00 30 1001.8
20260509014004 66 285 0.0 2.0 0.00 0.00 0.00 30 1001.8
20260509013504 66 290 0.0 3.0 0.00 0.00 0.00 29 1001.8
20260509013016 66 285 0.0 4.0 0.00 0.00 0.00 29 1001.7
20260509012507 67 296 1.0 4.0 0.00 0.00 0.00 29 1001.7
20260509012004 67 15 0.0 4.0 0.00 0.00 0.00 29 1001.7
20260509011514 67 19 0.0 4.0 0.00 0.00 0.00 29 1001.7
20260509011003 67 316 0.0 4.0 0.00 0.00 0.00 29 1001.7
20260509010503 67 42 1.0 7.0 0.00 0.00 0.00 29 1001.7
20260509010015 67 103 0.0 7.0 0.00 0.00 0.00 30 1001.6
20260509005506 68 185 1.0 5.0 0.00 0.00 0.00 30 1001.6
20260509005003 68 11 0.0 3.0 0.00 0.00 0.00 30 1001.6
20260509004514 68 102 0.0 4.0 0.00 0.00 0.00 30 1001.6
20260509004008 68 248 1.0 4.0 0.00 0.00 0.00 30 1001.5
20260509003506 68 289 0.0 3.0 0.00 0.00 0.00 30 1001.5
20260509003016 68 82 0.0 4.0 0.00 0.00 0.00 30 1001.6
20260509002511 68 115 1.0 7.0 0.00 0.00 0.00 29 1001.6
20260509002006 68 204 2.0 7.0 0.00 0.00 0.00 29 1001.6
20260509001518 69 89 2.0 4.0 0.00 0.00 0.00 29 1001.6
20260509001008 69 257 1.0 11.0 0.00 0.00 0.00 29 1001.6
20260509000508 69 28 2.0 11.0 0.00 0.00 0.00 29 1001.7
20260509000015 69 193 4.0 9.0 0.00 0.00 0.00 29 1001.6
20260508235507 69 15 2.0 6.0 0.00 0.00 0.00 28 1001.9
20260508235008 69 291 1.0 7.0 0.00 0.00 0.00 27 1001.7
20260508234516 70 243 1.0 7.0 0.00 0.00 0.00 27 1001.7
20260508234008 70 113 1.0 6.0 0.00 0.00 0.00 27 1001.7
20260508233508 70 250 1.0 7.0 0.00 0.00 0.00 27 1001.7
20260508233017 70 350 2.0 7.0 0.00 0.00 0.00 27 1001.8
20260508232506 70 304 2.0 10.0 0.00 0.00 0.00 27 1001.9
20260508232010 70 209 1.0 12.0 0.00 0.00 0.00 27 1001.7
20260508231520 70 311 1.0 12.0 0.00 0.00 0.00 27 1001.8
20260508231006 70 352 2.0 9.0 0.00 0.00 0.00 27 1001.7
20260508230510 70 30 1.0 7.0 0.00 0.00 0.00 28 1001.9
20260508230019 71 284 1.0 10.0 0.00 0.00 0.00 27 1002.1
20260508225507 71 196 2.0 10.0 0.00 0.00 0.00 26 1002.0
20260508225008 71 203 2.0 12.0 0.00 0.00 0.00 25 1001.9
20260508224520 72 215 2.0 12.0 0.00 0.00 0.00 25 1002.1
20260508224009 72 309 2.0 11.0 0.00 0.00 0.00 24 1002.1
20260508223507 72 242 4.0 14.0 0.00 0.00 0.00 23 1002.1
20260508223031 73 128 3.0 14.0 0.00 0.00 0.00 21 1002.1
20260508222510 73 140 4.0 14.0 0.00 0.00 0.00 21 1002.1
20260508222008 73 235 2.0 11.0 0.00 0.00 0.00 22 1002.2
20260508221520 72 240 4.0 11.0 0.00 0.00 0.00 22 1002.3
20260508221007 72 210 2.0 11.0 0.00 0.00 0.00 23 1002.4
20260508220508 72 122 1.0 7.0 0.00 0.00 0.00 23 1002.5
20260508220026 72 229 2.0 7.0 0.00 0.00 0.00 23 1002.5
20260508215507 71 277 2.0 9.0 0.00 0.00 0.00 23 1002.7
20260508215007 71 211 2.0 9.0 0.00 0.00 0.00 22 1002.8
20260508214544 71 238 3.0 14.0 0.00 0.00 0.00 23 1002.8
20260508214009 70 232 3.0 14.0 0.00 0.00 0.00 23 1002.9
20260508213508 70 251 3.0 14.0 0.00 0.00 0.00 25 1002.9
20260508213023 70 224 1.0 6.0 0.00 0.00 0.00 23 1003.0
20260508212508 70 188 1.0 4.0 0.00 0.00 0.00 25 1003.1
20260508212009 70 269 1.0 4.0 0.00 0.00 0.00 24 1003.1
20260508211523 70 273 1.0 4.0 0.00 0.00 0.00 24 1003.2
20260508211014 70 174 2.0 10.0 0.00 0.00 0.00 25 1003.3
20260508210511 70 251 1.0 10.0 0.00 0.00 0.00 25 1003.4
20260508210026 70 15 1.0 8.0 0.00 0.00 0.00 25 1003.4
20260508205507 71 212 1.0 8.0 0.00 0.00 0.00 23 1003.6
20260508205012 72 206 1.0 7.0 0.00 0.00 0.00 23 1003.6
20260508204524 72 242 1.0 7.0 0.00 0.00 0.00 23 1003.6
20260508204007 73 214 2.0 7.0 0.00 0.00 0.00 23 1003.7
20260508203508 73 20 1.0 4.0 0.00 0.00 0.00 22 1003.7
20260508203023 72 350 1.0 6.0 0.00 0.00 0.00 25 1003.7
20260508202505 71 277 2.0 6.0 0.00 0.00 0.00 23 1003.8
20260508202002 71 90 2.0 8.0 0.00 0.00 0.00 25 1003.7
20260508201506 71 219 1.0 10.0 0.00 0.00 0.00 24 1003.9
20260508201005 71 341 0.0 10.0 0.00 0.00 0.00 25 1003.9
20260508200503 71 352 2.0 10.0 0.00 0.00 0.00 24 1004.0
20260508200005 71 292 1.0 11.0 0.00 0.00 0.00 23 1004.0
20260508195504 72 157 3.0 11.0 0.00 0.00 0.00 23 1004.0
20260508195003 72 197 2.0 9.0 0.00 0.00 0.00 25 1004.2
20260508194504 73 266 1.0 8.0 0.00 0.00 0.00 22 1004.2
20260508194004 73 97 2.0 8.0 0.00 0.00 0.00 24 1004.3
20260508193508 74 211 2.0 12.0 0.00 0.00 0.00 22 1004.5
20260508193016 74 240 0.0 12.0 0.00 0.00 0.00 21 1004.5
20260508192507 73 144 1.0 9.0 0.00 0.00 0.00 23 1004.5
20260508192009 74 58 1.0 9.0 0.00 0.00 0.00 23 1004.7
20260508191503 74 267 2.0 9.0 0.00 0.00 0.00 19 1004.8
20260508191003 74 284 2.0 9.0 0.00 0.00 0.00 21 1004.9
20260508190504 74 240 2.0 6.0 0.00 0.00 0.00 22 1004.9
20260508190012 74 144 1.0 7.0 0.00 0.00 0.00 23 1005.0
20260508185504 73 360 1.0 7.0 0.00 0.00 0.00 23 1005.0
20260508185005 73 352 0.0 12.0 0.00 0.00 0.00 22 1005.0
20260508184522 72 205 2.0 12.0 0.00 0.00 0.00 21 1005.1
20260508184007 72 81 4.0 12.0 0.00 0.00 0.00 21 1005.1
20260508183503 72 246 4.0 11.0 0.00 0.00 0.00 21 1005.1
20260508183012 72 200 4.0 10.0 0.00 0.00 0.00 22 1005.1
20260508182505 72 219 2.0 9.0 0.00 0.00 0.00 26 1005.2
20260508182009 72 240 3.0 9.0 0.00 0.00 0.00 22 1005.4
20260508181504 71 246 1.0 9.0 0.00 0.00 0.00 22 1005.6
20260508181004 71 194 2.0 9.0 0.00 0.00 0.00 21 1005.5
20260508180510 70 217 2.0 8.0 0.00 0.00 0.00 21 1005.6
20260508180004 70 232 1.0 7.0 0.00 0.00 0.00 24 1005.7
20260508175504 70 281 2.0 7.0 0.00 0.00 0.00 23 1005.9
20260508175004 71 254 1.0 7.0 0.00 0.00 0.00 22 1006.0
20260508174507 71 227 1.0 10.0 0.00 0.00 0.00 24 1006.1
20260508174002 71 234 2.0 12.0 0.00 0.00 0.00 23 1006.1
20260508173507 70 284 2.0 12.0 0.00 0.00 0.00 23 1006.2
20260508173013 69 225 3.0 11.0 0.00 0.00 0.00 26 1006.4
20260508172508 68 248 0.0 7.0 0.00 0.00 0.00 25 1006.4
20260508172003 68 184 3.0 6.0 0.00 0.00 0.00 26 1006.6
20260508171518 68 236 1.0 6.0 0.00 0.00 0.00 24 1006.7
20260508171016 69 267 2.0 9.0 0.00 0.00 0.00 25 1006.7
20260508170505 69 293 2.0 9.0 0.00 0.00 0.00 25 1006.8
20260508170011 68 221 3.0 11.0 0.00 0.00 0.00 26 1006.9
20260508165506 67 220 2.0 11.0 0.00 0.00 0.00 25 1006.9
20260508165012 68 205 3.0 11.0 0.00 0.00 0.00 25 1007.0
20260508164518 69 217 1.0 10.0 0.00 0.00 0.00 25 1007.1
20260508164007 69 5 3.0 11.0 0.00 0.00 0.00 24 1007.1
20260508163504 68 93 1.0 11.0 0.00 0.00 0.00 28 1007.1
20260508163014 67 215 2.0 9.0 0.00 0.00 0.00 26 1007.1
20260508162508 68 315 1.0 7.0 0.00 0.00 0.00 26 1007.2
20260508162007 67 168 0.0 9.0 0.00 0.00 0.00 28 1007.3
20260508161513 65 184 3.0 11.0 0.00 0.00 0.00 28 1007.3
20260508161004 64 272 4.0 13.0 0.00 0.00 0.00 28 1007.3
20260508160510 64 227 6.0 13.0 0.00 0.00 0.00 26 1007.4
20260508160019 64 176 5.0 12.0 0.00 0.00 0.00 27 1007.4
20260508155509 65 168 4.0 12.0 0.00 0.00 0.00 28 1007.4
20260508155003 64 253 2.0 11.0 0.00 0.00 0.00 28 1007.4
20260508154518 64 192 5.0 11.0 0.00 0.00 0.00 28 1007.5
20260508154009 64 243 3.0 8.0 0.00 0.00 0.00 27 1007.5
20260508153505 63 211 2.0 9.0 0.00 0.00 0.00 31 1007.6
20260508153027 62 143 2.0 9.0 0.00 0.00 0.00 29 1007.7
20260508152507 62 189 3.0 10.0 0.00 0.00 0.00 30 1007.7
20260508152010 62 202 4.0 14.0 0.00 0.00 0.00 30 1007.7
20260508151511 62 251 4.0 14.0 0.00 0.00 0.00 30 1007.8
20260508151008 61 263 3.0 14.0 0.00 0.00 0.00 30 1007.9
20260508150505 61 236 6.0 14.0 0.00 0.00 0.00 29 1008.0
20260508150010 61 257 6.0 14.0 0.00 0.00 0.00 30 1008.0
20260508145507 60 251 3.0 11.0 0.00 0.00 0.00 31 1008.0
20260508145008 59 259 5.0 13.0 0.00 0.00 0.00 33 1008.1
20260508144527 59 231 3.0 13.0 0.00 0.00 0.00 33 1008.1
20260508144003 58 257 3.0 12.0 0.00 0.00 0.00 33 1008.2
20260508143506 57 193 4.0 10.0 0.00 0.00 0.00 34 1008.2
20260508143024 57 228 4.0 10.0 0.00 0.00 0.00 34 1008.2
20260508142507 56 175 4.0 10.0 0.00 0.00 0.00 35 1008.3
20260508142012 55 119 3.0 11.0 0.00 0.00 0.00 37 1008.3
20260508141521 54 148 4.0 11.0 0.00 0.00 0.00 38 1008.5
20260508141003 53 267 2.0 10.0 0.00 0.00 0.00 39 1008.5
20260508140504 52 254 3.0 9.0 0.00 0.00 0.00 41 1008.5
20260508140020 51 209 3.0 8.0 0.00 0.00 0.00 42 1008.5
20260508135507 50 243 2.0 7.0 0.00 0.00 0.00 44 1008.5
20260508135010 49 11 2.0 8.0 0.00 0.00 0.00 46 1008.6
20260508134514 48 245 2.0 8.0 0.00 0.00 0.00 48 1008.5
20260508134008 47 205 2.0 6.0 0.00 0.00 0.00 50 1008.5
20260508133510 46 244 2.0 4.0 0.00 0.00 0.00 52 1008.6
20260508133009 45 175 1.0 4.0 0.00 0.00 0.00 54 1008.6
20260508132510 44 146 0.0 5.0 0.00 0.00 0.00 55 1008.6
20260508132010 43 280 0.0 5.0 0.00 0.00 0.00 55 1008.6
20260508131525 42 213 1.0 5.0 0.00 0.00 0.00 55 1008.7
20260508131006 42 243 1.0 5.0 0.00 0.00 0.00 56 1008.7
20260508130507 41 254 1.0 4.0 0.00 0.00 0.00 57 1008.8
20260508130033 40 242 1.0 3.0 0.00 0.00 0.00 58 1008.7
20260508125515 39 238 0.0 4.0 0.00 0.00 0.00 59 1008.7
20260508125004 39 172 0.0 4.0 0.00 0.00 0.00 59 1008.8
20260508124515 38 195 0.0 3.0 0.00 0.00 0.00 59 1008.9
20260508124007 38 124 0.0 4.0 0.00 0.00 0.00 59 1008.9
20260508123505 38 122 0.0 4.0 0.00 0.00 0.00 60 1008.9
20260508123021 37 222 0.0 2.0 0.00 0.00 0.00 60 1009.0
20260508122513 37 222 0.0 1.0 0.00 0.00 0.00 60 1008.9
20260508122009 37 222 0.0 1.0 0.00 0.00 0.00 60 1009.0
20260508121516 37 222 0.0 2.0 0.00 0.00 0.00 60 1008.9
20260508121010 36 222 0.0 2.0 0.00 0.00 0.00 60 1008.9
20260508120506 36 222 0.0 2.0 0.00 0.00 0.00 60 1008.8
20260508120025 36 222 0.0 3.0 0.00 0.00 0.00 61 1008.8
20260508115508 36 222 0.0 3.0 0.00 0.00 0.00 61 1008.8
20260508115009 36 222 0.0 2.0 0.00 0.00 0.00 61 1008.8
20260508114528 36 222 0.0 2.0 0.00 0.00 0.00 62 1008.8
20260508114007 35 222 0.0 1.0 0.00 0.00 0.00 62 1008.8
20260508113510 35 222 0.0 2.0 0.00 0.00 0.00 62 1008.8
20260508113020 35 222 0.0 2.0 0.00 0.00 0.00 62 1008.8
20260508112508 35 222 0.0 2.0 0.00 0.00 0.00 62 1008.8
20260508112003 35 224 0.0 2.0 0.00 0.00 0.00 62 1008.8
20260508111502 35 244 0.0 2.0 0.00 0.00 0.00 62 1008.8
20260508111004 35 249 0.0 2.0 0.00 0.00 0.00 62 1008.8
20260508110502 35 249 0.0 1.0 0.00 0.00 0.00 62 1008.8
20260508110004 35 249 0.0 1.0 0.00 0.00 0.00 63 1008.8
20260508105504 35 249 0.0 1.0 0.00 0.00 0.00 63 1008.8
20260508105003 35 249 0.0 1.0 0.00 0.00 0.00 63 1008.7
20260508104504 35 249 0.0 0.0 0.00 0.00 0.00 63 1008.7
20260508104003 34 249 0.0 0.0 0.00 0.00 0.00 63 1008.8
20260508103503 34 249 0.0 0.0 0.00 0.00 0.00 64 1008.8
20260508103005 34 249 0.0 0.0 0.00 0.00 0.00 64 1008.8
20260508102502 34 249 0.0 1.0 0.00 0.00 0.00 64 1008.8
20260508102003 34 249 0.0 1.0 0.00 0.00 0.00 64 1008.8
20260508101504 34 249 0.0 0.0 0.00 0.00 0.00 65 1008.9
20260508101002 34 249 0.0 0.0 0.00 0.00 0.00 65 1008.9
20260508100503 34 249 0.0 1.0 0.00 0.00 0.00 65 1008.9
20260508100004 34 249 0.0 1.0 0.00 0.00 0.00 66 1009.0
20260508095506 34 249 0.0 2.0 0.00 0.00 0.00 66 1009.0
20260508095004 33 249 0.0 2.0 0.00 0.00 0.00 66 1009.0
20260508094506 33 30 0.0 0.0 0.00 0.00 0.00 66 1009.0
20260508094003 33 30 0.0 0.0 0.00 0.00 0.00 66 1009.0
20260508093503 33 30 0.0 0.0 0.00 0.00 0.00 66 1009.0
20260508093006 33 30 0.0 0.0 0.00 0.00 0.00 66 1009.0
20260508092503 33 30 0.0 0.0 0.00 0.00 0.00 66 1009.0
20260508092007 33 30 0.0 1.0 0.00 0.00 0.00 66 1009.0
20260508091510 33 30 0.0 1.0 0.00 0.00 0.00 66 1009.0
20260508091003 33 30 0.0 1.0 0.00 0.00 0.00 66 1009.1
20260508090503 33 30 0.0 1.0 0.00 0.00 0.00 66 1009.1
20260508090008 33 30 0.0 0.0 0.00 0.00 0.00 66 1009.1
20260508085505 33 30 0.0 0.0 0.00 0.00 0.00 66 1009.2
20260508085003 33 30 0.0 0.0 0.00 0.00 0.00 66 1009.2
20260508084505 33 30 0.0 0.0 0.00 0.00 0.00 66 1009.2
20260508084003 33 30 0.0 0.0 0.00 0.00 0.00 66 1009.3
20260508083503 33 30 0.0 0.0 0.00 0.00 0.00 66 1009.3
20260508083006 33 30 0.0 0.0 0.00 0.00 0.00 66 1009.3
20260508082505 33 30 0.0 0.0 0.00 0.00 0.00 65 1009.3
20260508082004 33 30 0.0 0.0 0.00 0.00 0.00 65 1009.4
20260508081511 34 29 0.0 0.0 0.00 0.00 0.00 65 1009.4
20260508081004 34 30 0.0 0.0 0.00 0.00 0.00 65 1009.5
20260508080503 34 30 0.0 0.0 0.00 0.00 0.00 65 1009.6
20260508080008 34 30 0.0 0.0 0.00 0.00 0.00 65 1009.6
20260508075507 34 30 0.0 0.0 0.00 0.00 0.00 64 1009.5
20260508075005 34 30 0.0 0.0 0.00 0.00 0.00 64 1009.5
20260508074505 34 30 0.0 0.0 0.00 0.00 0.00 64 1009.6
20260508074001 34 30 0.0 0.0 0.00 0.00 0.00 64 1009.6
20260508073502 34 30 0.0 0.0 0.00 0.00 0.00 63 1009.6
20260508073004 34 30 0.0 0.0 0.00 0.00 0.00 63 1009.6
20260508072505 34 30 0.0 0.0 0.00 0.00 0.00 63 1009.7
20260508072006 35 30 0.0 0.0 0.00 0.00 0.00 63 1009.7
20260508071514 35 30 0.0 0.0 0.00 0.00 0.00 62 1009.7
20260508071003 35 30 0.0 0.0 0.00 0.00 0.00 62 1009.8
20260508070503 35 30 0.0 0.0 0.00 0.00 0.00 62 1009.8
20260508070012 35 29 0.0 0.0 0.00 0.00 0.00 62 1009.9
20260508065504 35 30 0.0 0.0 0.00 0.00 0.00 61 1009.9
20260508065003 35 30 0.0 0.0 0.00 0.00 0.00 61 1009.9
20260508064512 35 30 0.0 0.0 0.00 0.00 0.00 61 1009.9
20260508064011 35 30 0.0 0.0 0.00 0.00 0.00 61 1009.9
20260508063502 35 30 0.0 0.0 0.00 0.00 0.00 61 1010.0
20260508063014 36 30 0.0 0.0 0.00 0.00 0.00 60 1010.0
20260508062506 36 30 0.0 0.0 0.00 0.00 0.00 60 1010.0
20260508062003 36 30 0.0 0.0 0.00 0.00 0.00 60 1010.1
20260508061506 36 30 0.0 0.0 0.00 0.00 0.00 59 1010.1
20260508061003 36 30 0.0 0.0 0.00 0.00 0.00 59 1010.1
20260508060507 36 30 0.0 0.0 0.00 0.00 0.00 58 1010.1
20260508060012 36 30 0.0 0.0 0.00 0.00 0.00 58 1010.2
20260508055502 36 30 0.0 0.0 0.00 0.00 0.00 57 1010.2
20260508055003 36 30 0.0 0.0 0.00 0.00 0.00 57 1010.2
20260508054515 36 30 0.0 0.0 0.00 0.00 0.00 57 1010.2
20260508054002 37 30 0.0 0.0 0.00 0.00 0.00 56 1010.3
20260508053505 37 30 0.0 0.0 0.00 0.00 0.00 55 1010.3
20260508053020 37 30 0.0 0.0 0.00 0.00 0.00 55 1010.3
20260508052507 37 30 0.0 0.0 0.00 0.00 0.00 55 1010.3
20260508052003 37 30 0.0 0.0 0.00 0.00 0.00 55 1010.3
20260508051514 37 30 0.0 0.0 0.00 0.00 0.00 54 1010.3
20260508051007 38 30 0.0 0.0 0.00 0.00 0.00 54 1010.3
20260508050502 38 30 0.0 0.0 0.00 0.00 0.00 53 1010.4
20260508050008 38 30 0.0 0.0 0.00 0.00 0.00 53 1010.4
20260508045502 38 30 0.0 0.0 0.00 0.00 0.00 52 1010.4
20260508045003 38 30 0.0 0.0 0.00 0.00 0.00 52 1010.4
20260508044510 39 30 0.0 0.0 0.00 0.00 0.00 52 1010.4
20260508044004 39 30 0.0 0.0 0.00 0.00 0.00 51 1010.5
20260508043506 39 30 0.0 0.0 0.00 0.00 0.00 51 1010.4
20260508043012 39 30 0.0 0.0 0.00 0.00 0.00 51 1010.5
20260508042504 40 30 0.0 0.0 0.00 0.00 0.00 51 1010.5
20260508042010 40 30 0.0 0.0 0.00 0.00 0.00 51 1010.5
20260508041521 40 30 0.0 0.0 0.00 0.00 0.00 50 1010.5
20260508041002 40 30 0.0 0.0 0.00 0.00 0.00 49 1010.4
20260508040506 40 30 0.0 0.0 0.00 0.00 0.00 49 1010.5
20260508040033 41 30 0.0 0.0 0.00 0.00 0.00 49 1010.5
20260508035508 41 30 0.0 0.0 0.00 0.00 0.00 48 1010.5
20260508035004 41 30 0.0 0.0 0.00 0.00 0.00 48 1010.5
20260508034520 41 30 0.0 0.0 0.00 0.00 0.00 47 1010.6
20260508034004 42 30 0.0 0.0 0.00 0.00 0.00 47 1010.5
20260508033503 42 30 0.0 0.0 0.00 0.00 0.00 46 1010.5
20260508033012 42 30 0.0 0.0 0.00 0.00 0.00 45 1010.5
20260508032507 42 30 0.0 0.0 0.00 0.00 0.00 45 1010.5
20260508032006 43 30 0.0 0.0 0.00 0.00 0.00 44 1010.5
20260508031511 43 30 0.0 0.0 0.00 0.00 0.00 44 1010.5
20260508031008 43 30 0.0 0.0 0.00 0.00 0.00 44 1010.5
20260508030507 44 30 0.0 0.0 0.00 0.00 0.00 43 1010.4
20260508030025 44 30 0.0 0.0 0.00 0.00 0.00 42 1010.4
20260508025506 44 30 0.0 0.0 0.00 0.00 0.00 42 1010.4
20260508025007 44 30 0.0 0.0 0.00 0.00 0.00 41 1010.4
20260508024524 45 30 0.0 0.0 0.00 0.00 0.00 41 1010.4
20260508024004 45 30 0.0 0.0 0.00 0.00 0.00 42 1010.3
20260508023507 45 30 0.0 0.0 0.00 0.00 0.00 41 1010.3
20260508023020 46 30 0.0 0.0 0.00 0.00 0.00 41 1010.2
20260508022511 46 30 0.0 0.0 0.00 0.00 0.00 41 1010.2